www.pogodaiklimat.ru

Погода и климат >> Архив погоды >> Норвегия >> Квамсой


ПОГОДА на Квамсое

  • Прогноз погоды на Квамсое
  • Монитор погоды на Квамсое

АРХИВ ПОГОДЫ на Квамсое

Время (UTC), дата Ветер
(напр.,м/с)
 
Видим.   Явления Облачность Т
(С)
Тd
(С)
f
(%)
Тe
(С)
Тes
(С)
Комфортность P
(гПа)
Po
(гПа)
Тmin
(С)
Tmax
(С)
R
(мм)
R24
(мм)
S
(см)
01 16.09 ЮЗ 8-13
{13}
н/о н/о +8.3 +5.4 82 +4 +4 1011.1 1005.0
02 16.09 З 7-11
{12}
н/о н/о +8.7 +4.9 77 +5 +5 1011.3 1005.3
03 16.09 З 6-10
{10}
н/о н/о +8.0 +5.5 84 +4 +4 1011.4 1005.3
04 16.09 З 2-4
{10}
н/о н/о +7.3 +4.1 80 +5 +5 1011.4 1005.3
05 16.09 З 9-13
{13}
н/о н/о +7.5 +4.3 80 +2 +2 1011.3 1005.2
06 16.09 З 4-7
{13}
20 км слаб. ливневой дождь 10/10 300 м
[Cu Sc]
+7.4 +5.1 85 +4 +4 1011.5 1005.4 +6.9 +10.7 2
07 16.09 З 3-6
{7}
н/о н/о +7.6 +5.4 86 +5 +5 1011.8 1005.7
08 16.09 ЮЗ 4-9
{9}
н/о н/о +8.8 +5.7 81 +6 +6 1012.0 1005.9
09 16.09 ЮЗ 5-8
{8}
н/о н/о +9.6 +6.2 79 +6 +6 1011.4 1005.3
10 16.09 ЮЗ 5-9
{11}
н/о н/о +9.1 +6.4 83 +6 +6 1011.4 1005.4
11 16.09 ЮЗ 7-10
{10}
н/о н/о +10.2 +6.6 78 +7 +7 1010.7 1004.7
12 16.09 ЮЗ 6-9
{12}
7000 м слаб. ливневой дождь 10/10 300 м
[Cu Sc]
+9.6 +6.9 83 +6 +6 1010.4 1004.4 0.7
13 16.09 ЮЗ 5-9
{12}
н/о н/о +9.6 +7.2 85 +6 +6 1010.0 1004.0
14 16.09 З 8-15
{15}
н/о н/о +8.4 +7.2 92 +4 +4 1010.1 1004.0
15 16.09 З 4-6
{9}
н/о н/о +8.3 +7.1 92 +5 +5 1009.7 1003.6
16 16.09 ЮЗ 3-5
{6}
н/о н/о +8.8 +7.7 93 +6 +6 1008.9 1002.9
17 16.09 СЗ 3-5
{8}
н/о н/о +7.1 +6.1 93 +4 +4 1008.6 1002.6
18 16.09 З 3-4
{15}
20 км слаб. ливневой дождь 10/10 300 м
[Cu Sc]
+7.1 +5.9 92 +4 +4 1008.0 1001.9 +6.8 +10.8 9
19 16.09 ЮЗ 4-7
{8}
н/о н/о +7.7 +6.8 94 +4 +4 1007.5 1001.5
20 16.09 З 4-7
{10}
н/о н/о +6.6 +4.8 88 +3 +3 1007.9 1001.8
21 16.09 З 7-14
{16}
н/о н/о +6.2 +4.4 88 +1 +1 1007.7 1001.6
22 16.09 СЗ 2-6
{14}
н/о н/о +5.4 +4.1 91 +3 +3 1008.1 1002.0
23 16.09 З 4-7
{8}
н/о н/о +6.0 +5.1 94 +2 +2 1007.7 1001.6
00 17.09 З 3-4
{16}
н/о н/о +5.3 +4.4 94 +2 +2 1007.0 1000.9 11
01 17.09 З 3-6
{6}
н/о н/о +5.9 +5.2 95 +2 +2 1006.3 1000.2
02 17.09 З 3-6
{10}
н/о н/о +4.9 +4.0 94 +1 +1 1006.3 1000.2
03 17.09 З 2-4
{4}
н/о н/о +4.4 +3.7 95 +1 +1 1005.9 999.8
04 17.09 З 1-2
{5}
н/о н/о +4.3 +3.4 94 +3 +3 1006.1 999.9
05 17.09 З 5-8
{8}
н/о н/о +4.7 +3.5 92 -0 -0 1006.6 1000.5
06 17.09 З 2-4
{10}
65 км в посл. час ливневой дождь 9/5 200 м
[Sc As trans]
+4.9 +3.9 93 +2 +2 1007.0 1000.9 +4.1 +8.2 16
07 17.09 З 2-3
{5}
н/о н/о +5.2 +4.3 94 +2 +2 1008.0 1001.9
08 17.09 З 3-5
{5}
н/о н/о +6.2 +3.7 84 +3 +3 1009.0 1002.9
09 17.09 ЮЗ 2-4
{5}
н/о н/о +6.4 +4.4 87 +4 +4 1009.8 1003.7
10 17.09 Ю 2-4
{4}
н/о н/о +8.9 +4.9 76 +7 +7 1010.8 1004.8
11 17.09 Ю 2-3
{4}
н/о н/о +12.3 +7.0 70 +11 +11 1011.7 1005.8
12 17.09 Ю 2-4
{5}
>70 км 9/6 1000 м
[Sc Ac trans Ci fib]
+12.8 +4.5 57 +12 +14 1012.6 1006.6 0.2
13 17.09 Ю 2-4
{4}
н/о н/о +10.3 +4.5 67 +9 +9 1013.4 1007.4
14 17.09 ЮЗ 2-5
{6}
н/о н/о +10.2 +3.9 65 +9 +9 1014.3 1008.2
15 17.09 З 1-5
{5}
н/о н/о +10.3 +5.1 70 +10 +10 1014.9 1008.8
16 17.09 З 2-5
{9}
н/о н/о +9.9 +5.9 76 +8 +8 1015.3 1009.3
17 17.09 З 3-5
{6}
н/о н/о +9.8 +6.0 77 +8 +8 1015.8 1009.8
18 17.09 З 4-7
{9}
70 км 9/6 600 м
[Sc Ac trans]
+9.5 +4.9 73 +7 +7 1016.6 1010.6 +4.8 +13.1 0.2
19 17.09 З 4-6
{6}
н/о н/о +9.2 +4.4 72 +6 +6 1017.3 1011.2
20 17.09 З 2-5
{7}
н/о н/о +8.8 +4.8 76 +7 +7 1018.1 1012.0
21 17.09 З 3-4
{5}
н/о н/о +8.5 +4.3 75 +6 +6 1018.5 1012.4
22 17.09 СЗ 3-5
{7}
н/о н/о +8.4 +3.5 71 +6 +6 1018.7 1012.6
23 17.09 З 2-5
{5}
н/о н/о +8.1 +3.8 74 +6 +6 1019.1 1013.0
00 18.09 З 5-7
{7}
н/о н/о +8.4 +4.2 75 +5 +5 1019.3 1013.2
01 18.09 З 3-5
{7}
н/о н/о +8.1 +4.1 76 +6 +6 1019.4 1013.3
02 18.09 З 4-7
{7}
н/о н/о +7.8 +4.6 80 +5 +5 1019.5 1013.4
03 18.09 З 5-7
{9}
н/о н/о +7.8 +4.2 78 +4 +4 1019.5 1013.3
04 18.09 штиль 0
{6}
н/о н/о +6.9 +3.9 81 +6 +6 1020.0 1013.9
05 18.09 З 3-4
{4}
н/о н/о +7.5 +4.5 81 +5 +5 1020.6 1014.4
06 18.09 З 3-5
{9}
>70 км 9/9 600 м
[Sc]
+7.8 +4.8 81 +5 +5 1021.0 1014.9 +6.9 +9.4 0.4
07 18.09 З 2-4
{4}
н/о н/о +8.4 +4.6 77 +7 +7 1021.6 1015.4
08 18.09 ЮЗ 4-6
{6}
н/о н/о +8.6 +6.4 86 +5 +5 1021.8 1015.7
09 18.09 Ю 3-5
{5}
н/о н/о +9.9 +7.0 82 +8 +8 1022.2 1016.1
10 18.09 Ю 3-6
{6}
н/о н/о +11.5 +6.6 72 +10 +10 1022.4 1016.3
11 18.09 Ю 3-5
{6}
н/о н/о +11.7 +6.0 68 +10 +10 1022.7 1016.7
12 18.09 Ю 2-5
{6}
>70 км 8/6 1000 м
[Sc Ac trans]
+12.9 +5.8 62 +12 +14 1022.7 1016.7
13 18.09 З 5-7
{9}
н/о н/о +12.0 +5.0 62 +10 +10 1023.0 1016.9
14 18.09 З 5-7
{9}
н/о н/о +11.9 +5.1 63 +10 +10 1023.5 1017.4
15 18.09 СЗ 3-6
{8}
н/о н/о +10.4 +3.9 64 +9 +9 1023.8 1017.7
16 18.09 СЗ 2-3
{7}
н/о н/о +11.0 +3.8 61 +10 +10 1024.1 1018.0
17 18.09 СЗ 3-4
{5}
н/о н/о +9.6 +2.0 59 +8 +8 1024.6 1018.5
18 18.09 СЗ 1-3
{9}
>70 км 5/4 1000 м
[Sc Ac trans]
+9.4 +2.7 63 +9 +9 1025.1 1019.0 +7.6 +14.7
19 18.09 З 4-7
{7}
н/о н/о +8.8 +3.4 69 +6 +6 1025.4 1019.3
20 18.09 З 4-6
{7}
н/о н/о +9.0 +3.0 66 +6 +6 1025.8 1019.6
21 18.09 З 3-5
{7}
н/о н/о +8.2 +3.1 70 +6 +6 1026.3 1020.1
22 18.09 З 2-4
{5}
н/о н/о +7.7 +3.6 75 +6 +6 1026.5 1020.3
23 18.09 штиль 0
{4}
н/о н/о +7.4 +2.5 71 +7 +7 1026.8 1020.7
00 19.09 штиль 0
{7}
н/о н/о +7.1 +2.6 73 +6 +6 1027.2 1021.0
01 19.09 штиль 0
{3}
н/о н/о +6.1 +3.4 83 +5 +5 1027.5 1021.3
02 19.09 З 1-3
{3}
н/о н/о +6.1 +2.9 80 +5 +5 1027.4 1021.2
03 19.09 З 1-3
{3}
н/о н/о +5.9 +3.1 82 +5 +5 1027.8 1021.6
04 19.09 штиль 0
{3}
н/о н/о +4.8 +3.0 88 +4 +4 1027.7 1021.5
05 19.09 штиль 0 н/о н/о +4.6 +3.6 93 +3 +3 1027.8 1021.5
06 19.09 штиль 0
{3}
>70 км 9/1 1500 м
[Cu hum Ac As]
+5.4 +3.7 89 +4 +4 1028.0 1021.8 +4.4 +9.4 0.2
07 19.09 штиль 0 н/о н/о +6.3 +4.8 90 +5 +5 1028.4 1022.2
08 19.09 штиль 0 н/о н/о +7.6 +4.7 82 +7 +7 1028.7 1022.5
09 19.09 штиль 0 н/о н/о +8.3 +4.7 78 +8 +8 1028.6 1022.4
10 19.09 штиль 0
{3}
н/о н/о +8.6 +5.2 79 +8 +8 1028.8 1022.6
11 19.09 штиль 0
{2}
н/о н/о +8.4 +5.2 80 +8 +8 1028.7 1022.5
12 19.09 штиль 0
{3}
25 км осадки на расстоянии 10/4 600 м
[Sc As op]
+8.7 +5.3 79 +8 +9 1028.2 1022.1 0.5
13 19.09 штиль 0 н/о н/о +9.1 +6.4 83 +8 +8 1028.0 1021.9
14 19.09 штиль 0 н/о н/о +9.2 +6.7 84 +8 +8 1027.6 1021.4
15 19.09 штиль 0 н/о н/о +8.5 +6.6 88 +8 +8 1027.4 1021.2
16 19.09 штиль 0-1
{1}
н/о н/о +7.8 +6.7 93 +7 +7 1027.2 1021.0
17 19.09 штиль 0 н/о н/о +7.5 +6.8 95 +6 +6 1026.8 1020.6
18 19.09 штиль 0
{2}
200 м морось {ливн. осадки, туман} ?/? +7.0 +6.4 96 +6 +6 1026.6 1020.5 +5.2 +9.4 1
19 19.09 штиль 0-2
{2}
н/о н/о +6.7 +6.1 96 +6 +6 1025.9 1019.8
20 19.09 штиль 0 н/о н/о +6.9 +6.3 96 +6 +6 1025.9 1019.7
21 19.09 штиль 0 н/о н/о +6.9 +6.3 96 +6 +6 1026.0 1019.8
22 19.09 штиль 0 н/о н/о +7.2 +6.8 97 +6 +6 1025.6 1019.5
23 19.09 штиль 0 н/о н/о +7.4 +7.0 97 +6 +6 1025.3 1019.2
00 20.09 штиль 0
{2}
н/о н/о +7.4 +7.1 98 +6 +6 1025.1 1018.9 2
01 20.09 штиль 0 н/о н/о +7.3 +7.0 98 +6 +6 1025.0 1018.8
02 20.09 штиль 0 н/о н/о +7.4 +7.0 97 +6 +6 1024.9 1018.7
03 20.09 штиль 0 н/о н/о +7.6 +7.3 98 +7 +7 1025.0 1018.8
04 20.09 штиль 0 н/о н/о +7.8 +7.5 98 +7 +7 1024.6 1018.4
05 20.09 штиль 0 н/о н/о +7.9 +7.6 98 +7 +7 1024.5 1018.3
06 20.09 штиль 0 800 м туман {ливн. осадки} ?/? +8.0 +7.7 98 +7 +7 1024.6 1018.4 +6.7 +8.0 4
07 20.09 штиль 0 н/о н/о +8.2 +7.9 98 +7 +7 1024.9 1018.8
08 20.09 штиль 0 н/о н/о +8.4 +8.1 98 +7 +7 1025.0 1018.9
09 20.09 штиль 0 н/о н/о +8.8 +8.5 98 +8 +8 1024.9 1018.8
10 20.09 СВ 1-2
{3}
н/о н/о +9.7 +9.4 98 +9 +9 1024.7 1018.6
11 20.09 штиль 0
{3}
н/о н/о +10.1 +9.3 95 +9 +9 1024.5 1018.4
12 20.09 штиль 0
{3}
10 км в посл. час туман 9/8 100 м
[St As trans]
+12.3 +11.4 94 +12 +13 1024.6 1018.5 1
13 20.09 штиль 0-3
{3}
н/о н/о +12.1 +10.8 92 +11 +11 1024.3 1018.3
14 20.09 ЮЗ 5-9
{9}
н/о н/о +12.1 +10.4 89 +10 +10 1024.3 1018.2
15 20.09 ЮЗ 4-8
{9}
н/о н/о +12.1 +10.5 90 +10 +10 1024.2 1018.1
16 20.09 Ю 3-5
{6}
н/о н/о +11.9 +10.3 90 +10 +10 1024.2 1018.2
17 20.09 ЮЗ 4-6
{7}
н/о н/о +11.6 +10.0 90 +9 +9 1024.2 1018.2
18 20.09 ЮЗ 2-4
{9}
>70 км 9/8 300 м
[Sc Ac trans]
+11.2 +10.0 92 +10 +10 1024.6 1018.5 +8.0 +12.8 0.3
19 20.09 ЮЗ 2-3
{5}
н/о н/о +10.5 +9.7 95 +9 +9 1024.6 1018.5
20 20.09 З 2-3
{4}
н/о н/о +10.3 +9.4 94 +9 +9 1024.6 1018.5
21 20.09 В 1-2
{3}
н/о н/о +9.7 +9.1 96 +9 +9 1024.9 1018.7
22 20.09 С 2-3
{3}
н/о н/о +9.4 +8.6 95 +8 +8 1024.6 1018.5
23 20.09 СВ 3-4
{4}
н/о н/о +9.6 +9.2 97 +7 +7 1024.3 1018.2
00 21.09 С 2-3
{5}
н/о н/о +9.0 +8.6 97 +7 +7 1024.1 1017.9
01 21.09 В 1-3
{4}
н/о н/о +9.1 +8.7 97 +8 +8 1023.8 1017.7
02 21.09 СВ 1-2
{3}
н/о н/о +8.7 +8.3 97 +8 +8 1023.5 1017.4
03 21.09 СЗ 1-2
{5}
н/о н/о +8.5 +7.9 96 +8 +8 1023.0 1016.9
04 21.09 С 2-4
{4}
н/о н/о +8.5 +8.1 97 +6 +6 1022.6 1016.4
05 21.09 В 2-3
{3}
н/о н/о +8.4 +8.0 97 +6 +6 1022.8 1016.7
06 21.09 В 1-2
{5}
70 км 1/1 50 м
[St]
+8.4 +8.0 97 +7 +7 1023.0 1016.9 +8.2 +11.3
07 21.09 В 1-4
{5}
н/о н/о +9.3 +8.7 96 +9 +9 1022.8 1016.7
08 21.09 СВ 3-5
{5}
н/о н/о +10.1 +9.3 95 +8 +8 1022.8 1016.7
09 21.09 В 2-4
{5}
н/о н/о +10.6 +9.5 93 +9 +9 1022.7 1016.6
10 21.09 СВ 3-5
{5}
н/о н/о +11.2 +9.6 90 +9 +9 1022.3 1016.2
11 21.09 СВ 3-4
{5}
н/о н/о +12.7 +9.9 83 +11 +11 1021.7 1015.7
12 21.09 СВ 3-4
{5}
>70 км ясно +13.1 +9.7 80 +12 +16 1021.2 1015.2 0.5
13 21.09 СВ 2-4
{4}
н/о н/о +13.2 +10.0 81 +12 +12 1020.6 1014.5
14 21.09 штиль 0
{4}
н/о н/о +12.7 +9.5 81 +12 +12 1020.0 1014.0
15 21.09 штиль 0 н/о н/о +12.0 +9.7 86 +11 +11 1019.5 1013.5
16 21.09 штиль 0 н/о н/о +11.4 +9.5 88 +11 +11 1019.1 1013.1
17 21.09 штиль 0-4
{4}
н/о н/о +10.7 +9.3 91 +10 +10 1018.6 1012.5
18 21.09 СВ 3-4
{4}
>70 км ясно +10.3 +9.4 94 +8 +8 1018.3 1012.3 +8.4 +13.5 0.5
19 21.09 СВ 3-4
{4}
н/о н/о +10.1 +9.3 95 +8 +8 1018.5 1012.4
20 21.09 СВ 3-4
{4}
н/о н/о +10.4 +9.6 95 +8 +8 1018.5 1012.4
21 21.09 СВ 2-4
{4}
н/о н/о +10.3 +9.7 96 +9 +9 1018.2 1012.2
22 21.09 В 2-3
{3}
н/о н/о +10.2 +9.4 95 +9 +9 1018.0 1011.9
23 21.09 СВ 1-2
{2}
н/о н/о +10.2 +9.6 96 +10 +10 1017.6 1011.5
00 22.09 ЮЗ 1-1
{4}
н/о н/о +9.6 +9.2 97 +9 +9 1017.2 1011.1
01 22.09 З 2-3
{3}
н/о н/о +8.8 +8.4 97 +7 +7 1016.8 1010.7
02 22.09 З 1-1
{3}
н/о н/о +9.1 +8.7 97 +8 +8 1016.4 1010.3
03 22.09 З 2-3
{3}
н/о н/о +8.6 +8.2 97 +7 +7 1016.2 1010.1
04 22.09 СЗ 2-3
{3}
н/о н/о +8.5 +7.9 96 +6 +6 1015.7 1009.6
05 22.09 В 1-4
{4}
н/о н/о +9.2 +8.4 95 +8 +8 1015.3 1009.3
06 22.09 ЮЗ 1-2
{4}
>70 км 1/0
[Ci fib]
+9.3 +8.4 94 +9 +9 1015.3 1009.2 +8.4 +10.5
07 22.09 З 2-3
{4}
н/о н/о +9.3 +8.4 94 +7 +7 1015.1 1009.1
08 22.09 Ю 1-1
{4}
н/о н/о +10.6 +9.0 90 +10 +10 1014.7 1008.7
09 22.09 В 2-5
{5}
н/о н/о +12.3 +9.5 83 +11 +11 1014.3 1008.3
10 22.09 СВ 3-5
{6}
н/о н/о +13.3 +9.4 77 +12 +12 1013.8 1007.8
11 22.09 штиль 0
{5}
н/о н/о +15.5 +9.2 66 +15 +15 1013.5 1007.6
12 22.09 штиль 0
{6}
>70 км 1/1 1000 м
[Cu hum Ci fib]
+15.3 +10.1 71 +15 +21 1013.1 1007.2 0.4
13 22.09 штиль 0 н/о н/о +16.5 +10.4 67 +16 +16 1012.7 1006.8
14 22.09 штиль 0
{2}
н/о н/о +15.5 +9.0 65 +15 +15 1012.4 1006.5
15 22.09 штиль 0-2
{2}
н/о н/о +15.0 +8.9 67 +15 +15 1012.2 1006.3
16 22.09 штиль 0
{4}
н/о н/о +13.5 +10.3 81 +13 +13 1012.1 1006.2
17 22.09 штиль 0
{3}
н/о н/о +13.2 +10.0 81 +13 +13 1012.2 1006.2
18 22.09 штиль 0
{4}
>70 км 6/1 1000 м
[Cu hum Ci fib]
+12.9 +9.2 78 +12 +12 1012.8 1006.9 +9.2 +16.9 0.4
19 22.09 штиль 0 н/о н/о +12.2 +10.3 88 +12 +12 1013.4 1007.4
20 22.09 штиль 0 н/о н/о +11.3 +10.1 92 +11 +11 1013.6 1007.6
21 22.09 штиль 0 н/о н/о +11.4 +9.8 90 +11 +11 1014.2 1008.2
22 22.09 штиль 0 н/о н/о +10.8 +10.0 95 +10 +10 1014.3 1008.2
23 22.09 СВ 1-4
{4}
н/о н/о +11.1 +9.9 92 +11 +11 1014.4 1008.4

 

Местоположение метеостанции Квамсой (Норвегия): широта 60.35 долгота 6.27 высота над уровнем моря 49 м.

В архиве по умолчанию представлена погода на Квамсое за последнюю неделю. Архивные данные за месяц целиком и за предыдущие месяцы, начиная с января 2011 года, Вы можете получить, выбрав интересующий диапазон дат из раскрывающегося списка и нажав кнопку "Ввод!".


*Определитесь, кто Вы:
робот инопланетянин человек

Внимание! Время в таблицах - всемирное. Для получения местного времени необходимо прибавить поправку, которая равна 1 ч.

Смотрите также архив погоды в соседних городах и на ближайших метеорологических станциях:

Погода в Квамскогене (Норвегия) (17 км)
Погода в Улленсванге (Норвегия) (21 км)
Погода в Воссевангене (Норвегия) (32 км)
Погода в Булкене (Норвегия) (33 км)
Погода в Эванжере (Норвегия) (34 км)
Погода в Фоссмарке (Норвегия) (36 км)
Погода в Бергене (Норвегия) (52 км)
Погода в Мьолфелле (Норвегия) (53 км)
Погода в Фете и Эйдфьорде (Норвегия) (56 км)
Погода в Модалене (Норвегия) (59 км)

Пояснения к столбцам:

Ветер - указаны скорость ветра в м/с - средняя за 10 мин, порывы в срок и между сроками (в фигурных скобках) и направление, откуда дует ветер: С - северный, СВ - северо-восточный, В - восточный, ЮВ - юго-восточный, Ю - южный, ЮЗ - юго-западный, З - западный, СЗ - северо-западный.
Видимость - горизонтальная дальность видимости в метрах или километрах. При видимости от 1 до 10 км при отсутствии осадков обычно наблюдается дымка, при ухудшении видимости до 1 км и менее - туман. В сухую погоду видимость может ухудшаться дымом, пылью или мглою.
Явления - указаны атмосферные явления, наблюдавшиеся в срок или в последний час перед сроком; фигурными скобками обозначены явления, наблюдавшиеся между сроками (за 1-3 часа до срока); квадратными скобками обозначены град или гололедные отложения с указанием их диаметра в мм.
Облачность - указаны через наклонную черту общая и нижняя облачность в баллах и высота нижней границы облаков в метрах; квадратными скобками обозначены формы облаков: Ci - перистые, Cs - перисто-слоистые, Cc - перисто-кучевые, Ac - высококучевые, As - высокослоистые, Sc - слоисто-кучевые, Ns - слоисто-дождевые, Cu - кучевые, Cb - кучево-дождевые. Подробнее классификацию облаков см. в Атласе облаков (PDF).
T - Температура воздуха - температура, измеренная на высоте 2 м над землей.
Td - Температура точки росы - температура, при понижении до которой содержащийся в воздухе водяной пар достигнет насыщения.
f - Относительная влажность воздуха - влажноcть воздуха, измеренная на высоте 2 м над землей.
Te - Эффективная температура - температура, которую ощущает одетый по сезону человек в тени. Характеристика душности погоды. При расчете учитывается влияние влажности воздуха и скорости ветра на теплоощущения человека.
Tes - Эффективная температура на солнце - температура, которую ощущает человек, с поправкой на солнечный нагрев. Характеристика знойности погоды. Зависит от высоты солнца над горизонтом, облачности и скорости ветра. Ночью, в пасмурную погоду, а также при ветре 12 м/с и более поправка равна нулю.
P - Атмосферное давление - приведенное к уровню моря атмосферное давление.
Po - Атмосферное давление - измеренное на уровне метеостанции атмосферное давление.
Tmin - Минимальная температура - минимум температуры воздуха на высоте 2 м над землей.
Tmax - Максимальная температура - максимум температуры воздуха на высоте 2 м над землей.
R - Количество осадков - Количество выпавших осадков за период времени, мм. При наведении курсора мыши на число - период времени, за который выпало указанное количество осадков.
R24 - Количество осадков - Количество выпавших осадков за 24 часа, мм.
S - Снежный покров - Высота снежного покрова, см. При наведении курсора мыши на число - состояние снежного покрова и степень покрытия местности в баллах.